Flag for France Weather past 2 weeks in Boulogne-Billancourt, France

Now
55 °F

Fog.


Feels Like: 55 °F
Forecast: 46 / 58 °F
Wind: 5 mph from West

Location: Paris-Orly


UV Index: 0 (Low)

Visibility: 1 mi


Pressure: 29.80 "Hg

Humidity: 94%

Dew point: 54 °F

Location of Boulogne-BillancourtLocation

Historic Weather in Boulogne-Billancourt

°F

Boulogne-Billancourt temperature yesterday

Maximum temperature yesterday: 66 °F (at 4:00 PM)
Minimum temperature yesterday: 54 °F (at 2:30 AM)
Average temperature yesterday: 59 °F

Past Weeks' High & Low Weather Summary

 TemperatureHumidityPressure
High70 °F (Apr 10, 5:30 PM)100% (Apr 23, 2:00 AM)30.36 "Hg (Apr 23, 2:00 AM)
Low39 °F (Apr 14, 6:00 AM)23% (Apr 17, 6:30 PM)29.59 "Hg (Apr 20, 3:30 PM)
Average54 °F63%30.04 "Hg
* Reported Apr 10 4:00 AM — Apr 25 4:00 AM, Boulogne-Billancourt, Weather by CustomWeather, © 2014

Note: Actual official high and low records may vary slightly from our data, if they occured in-between our weather recording intervals... More about our weather records

Advertising

Historic Weather Conditions — Data for Previous 24 hours

 ConditionsComfort  
Time TempWeatherWind HumidityBarometerVisibility
4:00 AM
Apr 25
55 °FFog.3 mph94%29.80 "Hg2 mi
3:30 AM57 °FFog.6 mph88%29.80 "Hg2 mi
3:00 AM57 °FFog.7 mph88%29.80 "Hg2 mi
2:30 AM57 °FSprinkles. Fog.7 mph82%29.80 "Hg2 mi
2:00 AM57 °FFog.5 mph82%29.83 "Hg2 mi
1:30 AM57 °FFog.8 mph82%29.83 "Hg2 mi
1:00 AM57 °FFog.7 mph82%29.86 "Hg2 mi
12:30 AM57 °FFog.7 mph82%29.86 "Hg2 mi
12:00 AM57 °FFog.7 mph82%29.86 "Hg2 mi
11:30 PM
Apr 24
59 °FFog.6 mph77%29.89 "Hg3 mi
11:00 PM57 °FPassing clouds.9 mph88%29.89 "Hg4 mi
10:30 PM59 °FSprinkles. Passing clouds.12 mph82%29.89 "Hg2 mi
10:00 PM59 °FSprinkles. Passing clouds.10 mph82%29.92 "Hg3 mi
9:30 PM61 °FThunderstorms. Scattered clouds.12 mph72%29.89 "Hg6 mi
9:00 PM63 °FBroken clouds.12 mph68%29.89 "HgN/A
8:30 PM61 °FBroken clouds.10 mph72%29.92 "HgN/A
8:00 PM63 °FPartly sunny.10 mph64%29.92 "HgN/A
7:30 PM63 °FPartly sunny.12 mph64%29.92 "HgN/A
7:00 PM64 °FBroken clouds.12 mph56%29.92 "HgN/A
6:30 PM64 °FBroken clouds.6 mph56%29.95 "HgN/A
6:00 PM66 °FBroken clouds.6 mph52%29.95 "HgN/A
5:30 PM66 °FBroken clouds.7 mph56%29.95 "HgN/A
5:00 PM66 °FBroken clouds.6 mph52%29.98 "HgN/A
4:30 PM66 °FBroken clouds.6 mph52%29.98 "HgN/A
4:00 PM66 °FBroken clouds.6 mph52%29.98 "HgN/A
3:30 PM64 °FBroken clouds.9 mph56%30.01 "HgN/A
3:00 PM64 °FBroken clouds.6 mph56%30.01 "HgN/A
2:30 PM64 °FBroken clouds.6 mph56%30.04 "HgN/A
2:00 PM64 °FBroken clouds.7 mph56%30.04 "HgN/A
1:30 PM63 °FBroken clouds.8 mph59%30.07 "HgN/A
1:00 PM61 °FPartly sunny.7 mph63%30.07 "HgN/A
12:30 PM61 °FPassing clouds.7 mph59%30.07 "HgN/A
12:00 PM59 °FPassing clouds.6 mph68%30.09 "HgN/A
11:30 AM59 °FClear.7 mph72%30.09 "Hg6 mi
11:00 AM57 °FClear.3 mph77%30.09 "Hg6 mi
10:30 AM57 °FClear.2 mph77%30.09 "Hg6 mi
10:00 AM55 °FClear.3 mph82%30.09 "Hg6 mi
9:30 AM55 °FClear.1 mph82%30.09 "Hg5 mi
9:00 AM55 °FClear.3 mph77%30.09 "Hg6 mi
8:30 AM55 °FSunny.2 mph77%30.09 "Hg10 mi
8:00 AM54 °FSunny.2 mph82%30.09 "Hg10 mi
7:30 AM54 °FClear.No wind82%30.09 "Hg10 mi
7:00 AM54 °FClear.No wind82%30.09 "Hg10 mi
6:30 AM54 °FClear.3 mph82%30.09 "Hg10 mi
6:00 AM54 °FPartly cloudy.1 mph82%30.09 "HgN/A
5:30 AM54 °FClear.2 mph82%30.09 "Hg10 mi
5:00 AM55 °FClear.No wind77%30.09 "Hg10 mi
Weather by CustomWeather, © 2014

See weather overview